SCP
0 0 0 0 0 0 0 0 0 0 0 0 0 0 0 0 0 0 0 0 0 0 0 0 0 0 0 0 0 0 0 0 0 0 0 0 0 0 0 0 0 0 0 -0 0 0 0
0 0 0 0 0 0 0 0 0 0 0 0 0 0 0 0 0 0 0 0 0 0 0 -0 0 0 0 0 0 0 0 0 0 0 0 0 0 0 0 0 0 0 0 0 -0 -0 -0
0 0 0 0 0 0 0 0 0 0 0 0 0 0 0 0 0 0 0 0 0 0 -0 -0 0 0 0 0 0 0 0 0 0 0 0 0 0 0 0 0 0 0 0 -0 -0 -0 -0
0 0 0 0 0 0 0 0 0 0 0 0 0 0 0 0 0 0 0 0 0 0 -0 -0 -0 0 0 0 0 0 0 0 0 0 0 0 0 0 -0 -0 -0 -0 -0 -0 -0 -0 0
0 0 0 0 0 0 0 0 0 0 0 0 0 0 0 0 0 0 -0 0 -0 -0 -0 0 0 0 0 -0 0 0 0 0 0 0 0 0 0 0 -0 -0 0 0 -0 -0 0 -0 0
0 0 0 0 0 0 0 0 0 0 0 0 0 0 0 0 0 0 -0 0 0 -0 0 0 0 0 0 0 0 0 0 0 0 0 0 0 0 0 -0 0 0 0 0 -0 0 -0 -0
0 0 0 0 0 0 0 0 0 0 0 0 0 0 -0 -0 0 0 0 0 0 0 0 0 0 0 0 0 0 0 0 0 0 0 0 0 0 0 -0 -0 0 0 0 0 0 -0 -0
0 0 0 0 0 0 0 0 0 0 0 0 0 -0 -0 -0 -0 0 0 0 0 -0 0 0 0 0 0 0 0 0 0 0 0 0 0 0 0 0 0 -0 0 0 0 0 -0 -0 0
0 0 0 0 0 0 0 0 0 0 0 0 -0 -0 -0 -0 -0 0 0 0 0 0 0 0 0 0 0 0 0 0 0 0 0 0 0 0 0 0 0 0 0 0 0 0 -0 0 0
0 0 0 0 0 0 0 0 0 0 0 0 0 -0 -0 -0 0 0 0 0 0 -0 0 0 0 0 0 0 0 0 0 0 0 0 0 0 0 0 -0 -0 0 0 0 0 0 0 0
0 0 0 0 0 0 0 0 0 0 0 0 0 -0 -0 0 0 0 0 0 0 0 0 0 0 0 0 0 0 0 0 0 0 0 0 0 0 0 0 0 0 0 0 0 0 0 0
0 0 0 0 0 0 0 0 0 0 0 0 0 0 0 -0 0 0 0 0 0 0 0 0 0 0 0 0 0 0 0 0 0 0 0 0 0 0 -0 0 0 0 0 0 0 0 0
0 0 0 0 0 0 0 0 0 0 0 0 0 0 0 0 0 0 0 0 0 0 0 0 0 0 0 0 0 0 0 0 0 0 0 0 0 0 0 0 0 0 0 0 0 0 0
0 0 0 0 0 0 0 0 0 0 0 0 0 -0 -0 0 0 0 0 0 0 0 0 0 0 0 0 0 0 0 0 0 0 0 0 0 0 0 0 0 0 0 0 0 0 0 0
0 0 0 0 0 0 0 0 0 0 0 0 0 -0 0 0 0 0 0 0 0 0 0 0 0 0 0 0 0 0 0 0 0 0 0 0 0 0 0 0 0 0 0 0 0 0 0
0 0 0 0 0 0 0 0 0 0 0 0 -0 0 0 0 0 0 0 0 0 0 0 0 0 -0 0 0 0 0 0 0 0 0 0 0 0 0 0 0 0 0 0 0 0 0 0
0 0 0 0 0 0 0 0 0 0 0 0 -0 0 0 0 0 0 0 0 -0 -0 0 0 0 0 0 0 0 0 -0 0 0 0 0 0 0 0 0 0 0 0 0 0 0 0 0
0 0 0 0 0 0 0 0 0 0 0 -0 0 0 0 0 0 0 0 -0 -0 -0 -0 0 0 0 0 0 0 -0 -0 0 0 0 0 0 0 0 0 0 0 0 0 0 0 0 0
0 0 0 0 0 0 0 0 0 0 0 -0 0 0 0 0 0 0 0 0 0 0 0 0 0 0 0 0 0 0 0 0 0 0 0 0 0 0 0 0 0 0 0 0 0 0 0
0 0 0 0 0 0 0 0 0 0 0 0 0 0 0 0 0 0 0 -0 0 0 0 0 0 0 0 0 0 0 0 0 0 0 0 0 0 0 0 0 0 0 0 0 0 0 0
0 0 0 0 0 0 0 0 0 0 0 0 0 0 0 0 0 0 0 0 0 0 0 0 0 0 0 0 0 0 0 0 0 0 0 0 0 0 0 0 0 0 0 0 0 0 0
0 0 0 0 0 0 0 0 0 0 0 0 0 0 0 0 0 0 0 0 0 0 0 0 0 0 0 0 0 0 0 0 0 0 0 0 0 0 0 0 0 0 0 0 0 0 0
0 0 0 0 0 0 0 0 0 0 0 0 0 0 0 0 0 0 0 0 0 0 0 0 0 0 0 0 0 0 0 0 0 0 0 0 0 0 0 0 0 0 0 0 0 0 0
0 0 0 0 0 0 0 0 0 0 0 0 0 0 0 0 0 0 0 0 0 0 0 0 0 0 0 0 0 0 0 0 0 0 0 0 0 0 0 0 0 0 0 0 0 0 0
0 0 0 0 0 0 0 0 0 0 0 0 0 0 0 0 0 0 0 0 0 0 0 0 0 0 0 0 0 0 0 0 0 0 0 0 0 0 0 0 0 0 0 0 0 0 0
0 0 0 0 0 0 0 0 0 0 0 0 0 0 0 0 0 0 0 0 0 0 0 0 0 0 0 0 0 0 0 0 0 0 0 0 0 0 0 0 0 0 0 0 0 0 0
0 0 0 0 0 0 0 0 0 0 0 0 0 0 0 0 0 0 0 0 0 0 0 0 0 0 0 0 0 0 0 0 0 0 0 0 0 0 0 0 0 0 0 0 0 0 0
0 0 0 0 0 0 0 0 0 0 0 0 0 0 0 0 0 0 0 0 0 0 0 0 0 0 0 0 0 0 0 0 0 0 0 0 0 0 0 0 0 0 0 0 0 0 0
0 0 0 0 0 0 0 0 0 0 0 0 0 0 0 0 0 0 0 0 0 0 0 0 0 0 0 0 0 0 0 0 0 0 0 0 0 0 0 0 0 0 0 0 0 0 0
Wind_Speed_500mb
10 10 11 16 19 16 18 25 23 26 28 30 32 33 36 37 38 38 39 40 34 30 31 25 20 13 7 6 4 9 5 5 16 19 11 2 7 5 2 5 10 8 8 17 10 8 9
10 13 14 14 18 21 18 23 24 25 29 32 34 36 38 39 40 38 37 39 33 29 26 20 17 11 5 5 4 12 7 7 17 20 6 9 14 13 8 6 4 12 19 22 3 15 6
12 13 15 18 19 21 23 23 27 27 30 33 36 37 38 41 41 38 35 39 33 28 21 17 15 9 11 4 1 10 4 9 16 8 5 13 18 18 10 10 10 11 11 16 11 7 11
15 15 17 18 20 22 24 25 29 29 32 35 38 40 41 42 42 40 35 39 30 25 16 15 14 9 8 4 9 2 12 19 10 1 9 13 19 20 5 12 13 7 10 7 11 13 10
17 18 19 20 21 23 26 27 30 31 33 36 39 42 41 41 42 42 34 37 26 18 12 13 11 6 7 7 11 12 13 11 2 9 10 15 14 4 4 6 10 14 2 3 18 5 7
18 20 20 22 23 24 26 27 30 32 34 37 40 43 43 40 42 43 30 30 18 9 7 14 11 7 7 6 14 16 10 7 9 20 12 5 1 5 6 8 6 5 1 6 10 10 24
17 20 23 25 26 28 27 29 30 34 34 36 42 44 44 40 42 39 19 16 19 3 33 27 28 21 30 12 8 18 15 16 18 11 1 8 7 9 16 12 3 2 10 14 8 7 15
22 20 22 23 26 29 30 31 32 35 35 37 41 46 46 42 39 28 16 16 17 25 22 27 27 37 33 26 10 24 24 14 6 6 5 11 11 17 10 4 6 17 3 6 7 10 8
25 26 24 26 26 28 29 34 33 36 37 38 41 46 47 39 33 14 14 14 34 26 7 21 21 24 26 13 22 32 31 17 5 0 8 10 15 5 6 6 5 5 12 7 13 6 9
26 27 28 26 28 29 32 32 36 38 39 40 41 45 47 41 17 25 4 26 30 10 8 13 10 15 17 14 8 31 39 16 4 11 7 11 11 10 7 4 13 6 2 14 19 9 8
29 28 29 29 28 29 31 34 36 39 41 42 43 44 44 38 40 28 18 23 12 3 5 5 8 7 21 21 6 19 35 33 10 10 10 14 11 8 2 12 14 11 8 9 9 7 9
32 28 28 29 29 29 31 32 36 40 41 44 44 43 47 40 35 14 18 17 4 10 10 5 11 11 12 12 7 8 18 22 8 7 5 16 22 6 13 6 3 8 9 14 8 8 6
34 31 28 27 29 31 32 32 36 40 43 47 49 44 47 45 30 22 19 9 7 5 11 4 8 7 8 8 3 10 11 10 8 4 9 11 6 5 7 11 7 15 13 8 8 9 8
38 36 33 29 27 28 33 35 37 41 45 50 51 51 46 41 32 18 8 8 3 6 10 10 4 7 14 11 9 7 10 9 6 8 2 1 8 3 2 7 12 5 13 11 8 5 8
38 39 39 38 36 34 34 38 40 42 45 52 55 53 44 26 17 22 11 4 10 10 7 16 12 8 7 8 6 8 15 14 17 15 13 8 8 5 4 6 11 4 3 4 13 7 5
41 39 38 38 40 39 39 38 42 44 44 49 58 60 18 11 19 29 7 8 8 6 13 8 11 1 10 5 11 13 12 11 13 20 14 4 5 3 5 12 14 8 10 5 7 7 5
44 42 40 36 37 35 36 36 37 41 41 43 46 31 28 18 25 14 7 10 8 9 21 12 9 8 5 1 11 11 17 10 15 15 22 10 7 6 6 6 4 5 4 12 10 7 9
45 43 41 36 32 32 30 31 33 36 35 34 22 9 12 12 1 2 6 10 6 4 25 13 9 18 7 6 3 7 20 6 7 20 17 11 9 6 5 9 6 6 7 8 10 4 2
45 44 37 37 33 29 27 25 27 29 27 29 26 15 7 12 2 4 8 5 7 7 10 6 8 8 6 4 3 2 5 5 13 9 20 15 2 6 9 12 9 15 5 9 9 6 8
51 48 44 43 36 29 25 22 22 21 21 20 11 7 9 1 1 2 6 4 9 17 14 13 14 8 3 9 6 5 3 11 14 11 14 17 7 14 15 12 7 9 7 8 9 7 4
60 53 53 45 39 33 26 20 21 18 17 12 4 5 7 7 6 8 6 7 13 7 10 10 7 10 10 4 8 6 7 8 12 13 6 8 8 6 7 10 7 4 3 9 5 8 8
56 56 54 49 44 39 32 24 21 17 14 7 4 8 12 12 19 8 11 5 7 12 7 15 7 6 4 12 12 2 4 4 2 12 8 9 2 5 6 9 8 1 4 1 5 5 8
49 49 52 54 51 46 39 32 26 20 13 4 4 5 8 10 11 4 3 10 12 22 15 25 7 8 7 8 5 3 4 7 5 10 5 7 9 6 5 2 7 6 6 6 6 6 5
49 48 46 48 51 50 39 35 30 22 16 14 8 6 4 7 2 2 7 13 19 17 10 11 10 8 5 2 8 7 15 13 16 12 8 9 7 5 5 6 4 12 6 12 16 5 6
42 46 47 45 44 44 43 39 39 28 20 16 14 6 3 5 5 10 20 10 25 32 10 9 19 12 1 6 10 11 11 10 8 15 11 6 10 6 8 7 7 10 10 10 9 1 3
40 39 42 47 45 43 48 44 41 35 27 20 14 15 8 2 7 12 9 12 6 10 17 13 17 19 5 8 8 6 6 8 6 5 10 12 13 9 6 8 14 13 6 5 17 3 8
40 39 40 42 46 45 45 48 47 42 34 26 19 18 14 8 10 10 8 6 12 9 5 11 27 14 13 6 6 5 5 4 4 7 2 6 6 9 6 7 12 13 13 4 9 13 30
40 41 39 37 41 44 43 43 46 46 40 30 23 22 25 9 27 23 22 18 14 9 4 21 9 10 9 8 6 5 4 4 1 3 6 10 9 7 6 3 12 8 3 9 9 42 38
41 40 40 37 36 40 41 40 40 37 39 30 28 23 28 29 13 17 24 28 28 17 16 12 3 4 5 7 1 5 4 4 3 5 8 0 10 6 11 9 8 7 1 5 18 25 15
Wind_Direction_500mb
323 318 322 322 322 332 333 321 331 335 337 335 333 333 330 331 331 337 334 330 330 328 327 330 329 331 336 303 318 352 332 215 177 169 162 47 11 27 359 304 302 180 270 202 259 294 136
326 321 322 324 326 327 331 324 327 333 336 334 331 332 330 328 330 332 329 327 328 327 324 328 326 330 297 297 25 1 301 209 174 160 140 12 358 326 270 258 236 296 287 287 188 302 348
323 324 322 323 324 325 325 329 327 333 335 331 330 329 330 326 327 327 326 323 325 323 319 322 319 315 251 276 11 356 276 156 148 151 334 359 356 345 310 311 312 324 10 340 352 359 38
325 323 321 321 321 324 323 328 327 332 334 332 331 328 329 327 324 323 324 320 320 314 309 310 306 296 236 220 223 38 138 137 140 168 348 358 345 314 263 310 351 38 49 34 297 32 6
321 319 318 319 320 323 322 328 328 329 332 331 329 327 328 327 323 320 326 317 315 307 308 306 293 295 251 256 202 159 174 151 323 311 303 310 315 301 332 69 9 15 141 281 322 21 138
314 313 313 316 316 317 320 326 327 326 330 330 328 324 329 328 325 319 330 318 331 301 314 324 272 297 218 297 234 218 194 233 291 326 304 293 59 51 32 73 199 178 27 296 249 356 83
306 310 315 316 315 315 320 322 324 324 328 329 326 325 328 329 325 321 342 341 354 350 309 272 275 267 287 327 239 214 218 243 259 272 49 358 41 244 231 206 92 175 167 217 267 146 91
306 307 308 309 313 316 319 322 323 323 329 328 324 326 325 330 324 319 329 16 29 326 297 290 272 262 267 276 305 225 206 200 178 205 36 10 245 238 232 184 153 261 356 137 25 60 87
298 302 304 306 310 314 318 321 326 324 328 326 324 325 325 334 323 315 320 12 342 342 283 292 245 243 246 236 226 226 203 196 120 36 211 193 252 60 203 45 232 303 174 192 160 80 82
289 293 299 304 308 312 318 322 323 324 327 327 325 326 327 335 320 330 357 334 339 330 47 274 222 228 197 207 229 222 204 171 185 215 212 226 277 263 40 241 168 93 201 129 131 106 200
282 285 290 297 303 309 314 318 321 323 326 325 324 324 321 324 314 320 313 330 8 91 349 194 189 175 173 172 164 190 197 196 195 230 72 262 303 13 197 214 161 196 164 115 135 128 100
277 281 283 291 300 306 311 315 319 322 323 321 320 321 315 313 309 317 324 332 7 44 258 316 157 169 126 199 218 88 162 199 232 219 219 246 264 238 225 88 115 92 77 45 63 90 30
271 278 282 285 293 303 309 316 320 323 323 319 316 316 310 299 294 303 321 348 39 175 320 310 206 151 157 167 235 153 154 161 191 112 358 324 268 254 181 99 34 72 53 5 10 14 215
268 269 276 282 288 297 306 313 319 322 325 319 316 315 306 289 288 265 294 53 203 269 285 336 302 120 176 162 231 209 148 198 231 105 102 205 344 260 175 157 159 56 140 145 190 185 267
269 265 268 273 281 289 297 304 311 318 325 321 320 317 314 302 250 213 169 116 224 220 343 324 325 109 226 219 182 151 204 215 193 167 171 174 288 338 177 133 118 194 62 178 102 23 65
261 265 266 273 275 285 291 296 303 310 321 324 326 324 334 317 184 176 98 221 249 283 339 337 3 130 185 218 162 163 185 212 204 189 156 214 101 25 338 55 36 112 152 60 18 134 211
255 259 262 272 274 280 289 294 300 304 314 322 329 326 323 157 149 169 161 231 281 305 354 352 322 298 226 193 191 199 208 269 189 181 161 157 107 286 47 47 208 13 43 52 110 112 151
249 254 261 263 269 277 285 293 300 306 312 322 326 338 100 160 67 50 164 196 281 315 318 265 238 219 249 245 228 232 206 262 41 147 166 192 141 149 125 308 218 127 88 109 111 229 89
247 251 253 255 264 272 277 294 295 309 316 329 322 282 252 219 201 241 287 273 274 272 245 269 271 241 292 291 8 235 162 116 43 163 159 178 16 69 15 358 5 82 37 96 99 88 196
240 248 250 250 252 265 273 285 288 303 310 328 316 341 327 32 312 359 8 300 283 306 263 234 243 239 303 34 357 311 1 15 51 68 85 102 103 153 188 192 149 114 109 98 107 101 191
242 239 241 246 247 251 265 270 277 287 302 324 308 287 343 319 336 335 286 308 299 267 243 292 297 217 159 79 343 38 357 4 46 27 57 91 109 111 74 78 93 155 108 133 145 179 149
241 244 239 241 245 242 251 257 264 269 288 302 308 346 335 299 300 342 359 340 318 336 232 288 233 346 191 149 179 141 324 15 279 19 58 2 92 103 64 46 86 215 283 358 141 129 245
239 240 239 240 241 240 242 244 248 260 258 217 221 303 300 308 334 58 6 302 315 325 273 241 293 108 91 170 192 32 40 343 266 127 96 64 121 92 182 69 115 333 207 125 94 51 249
236 236 237 237 236 236 231 231 239 244 233 227 238 331 321 274 329 6 314 313 302 302 260 321 105 124 181 184 93 54 62 54 76 44 117 111 86 77 148 45 166 239 289 127 119 49 40
237 233 232 232 231 227 225 222 229 235 230 230 240 226 277 277 299 333 324 322 324 347 360 345 24 23 85 64 64 39 352 17 352 40 25 71 118 96 144 188 287 307 160 169 188 135 301
235 236 228 228 229 225 223 220 220 225 232 228 233 221 210 267 231 321 311 343 331 331 341 358 9 359 360 69 70 109 187 215 279 323 49 59 63 120 122 168 213 236 251 72 109 274 212
239 234 230 225 226 225 224 224 224 226 229 229 228 224 201 230 266 12 32 329 351 343 269 319 333 349 13 61 81 131 221 211 222 189 243 25 24 163 136 215 287 252 222 157 126 238 173
233 235 234 222 222 225 222 221 221 220 220 224 227 228 211 244 264 265 280 308 338 9 46 322 357 353 27 68 114 194 149 254 17 212 192 175 157 203 106 148 269 350 83 164 204 153 167
230 228 229 223 220 222 219 214 208 206 206 218 228 229 224 240 266 288 263 248 263 288 292 322 318 293 358 85 64 117 93 46 91 258 344 45 187 198 165 219 284 308 3 59 150 153 166
Wind_Speed_850mb
10 10 11 16 19 16 18 25 23 26 28 30 32 33 36 37 38 38 39 40 34 30 31 25 20 13 7 6 4 9 5 5 16 19 11 2 7 5 2 5 10 8 8 17 10 8 9
10 13 14 14 18 21 18 23 24 25 29 32 34 36 38 39 40 38 37 39 33 29 26 20 17 11 5 5 4 12 7 7 17 20 6 9 14 13 8 6 4 12 19 22 3 15 6
12 13 15 18 19 21 23 23 27 27 30 33 36 37 38 41 41 38 35 39 33 28 21 17 15 9 11 4 1 10 4 9 16 8 5 13 18 18 10 10 10 11 11 16 11 7 11
15 15 17 18 20 22 24 25 29 29 32 35 38 40 41 42 42 40 35 39 30 25 16 15 14 9 8 4 9 2 12 19 10 1 9 13 19 20 5 12 13 7 10 7 11 13 10
17 18 19 20 21 23 26 27 30 31 33 36 39 42 41 41 42 42 34 37 26 18 12 13 11 6 7 7 11 12 13 11 2 9 10 15 14 4 4 6 10 14 2 3 18 5 7
18 20 20 22 23 24 26 27 30 32 34 37 40 43 43 40 42 43 30 30 18 9 7 14 11 7 7 6 14 16 10 7 9 20 12 5 1 5 6 8 6 5 1 6 10 10 24
17 20 23 25 26 28 27 29 30 34 34 36 42 44 44 40 42 39 19 16 19 3 33 27 28 21 30 12 8 18 15 16 18 11 1 8 7 9 16 12 3 2 10 14 8 7 15
22 20 22 23 26 29 30 31 32 35 35 37 41 46 46 42 39 28 16 16 17 25 22 27 27 37 33 26 10 24 24 14 6 6 5 11 11 17 10 4 6 17 3 6 7 10 8
25 26 24 26 26 28 29 34 33 36 37 38 41 46 47 39 33 14 14 14 34 26 7 21 21 24 26 13 22 32 31 17 5 0 8 10 15 5 6 6 5 5 12 7 13 6 9
26 27 28 26 28 29 32 32 36 38 39 40 41 45 47 41 17 25 4 26 30 10 8 13 10 15 17 14 8 31 39 16 4 11 7 11 11 10 7 4 13 6 2 14 19 9 8
29 28 29 29 28 29 31 34 36 39 41 42 43 44 44 38 40 28 18 23 12 3 5 5 8 7 21 21 6 19 35 33 10 10 10 14 11 8 2 12 14 11 8 9 9 7 9
32 28 28 29 29 29 31 32 36 40 41 44 44 43 47 40 35 14 18 17 4 10 10 5 11 11 12 12 7 8 18 22 8 7 5 16 22 6 13 6 3 8 9 14 8 8 6
34 31 28 27 29 31 32 32 36 40 43 47 49 44 47 45 30 22 19 9 7 5 11 4 8 7 8 8 3 10 11 10 8 4 9 11 6 5 7 11 7 15 13 8 8 9 8
38 36 33 29 27 28 33 35 37 41 45 50 51 51 46 41 32 18 8 8 3 6 10 10 4 7 14 11 9 7 10 9 6 8 2 1 8 3 2 7 12 5 13 11 8 5 8
38 39 39 38 36 34 34 38 40 42 45 52 55 53 44 26 17 22 11 4 10 10 7 16 12 8 7 8 6 8 15 14 17 15 13 8 8 5 4 6 11 4 3 4 13 7 5
41 39 38 38 40 39 39 38 42 44 44 49 58 60 18 11 19 29 7 8 8 6 13 8 11 1 10 5 11 13 12 11 13 20 14 4 5 3 5 12 14 8 10 5 7 7 5
44 42 40 36 37 35 36 36 37 41 41 43 46 31 28 18 25 14 7 10 8 9 21 12 9 8 5 1 11 11 17 10 15 15 22 10 7 6 6 6 4 5 4 12 10 7 9
45 43 41 36 32 32 30 31 33 36 35 34 22 9 12 12 1 2 6 10 6 4 25 13 9 18 7 6 3 7 20 6 7 20 17 11 9 6 5 9 6 6 7 8 10 4 2
45 44 37 37 33 29 27 25 27 29 27 29 26 15 7 12 2 4 8 5 7 7 10 6 8 8 6 4 3 2 5 5 13 9 20 15 2 6 9 12 9 15 5 9 9 6 8
51 48 44 43 36 29 25 22 22 21 21 20 11 7 9 1 1 2 6 4 9 17 14 13 14 8 3 9 6 5 3 11 14 11 14 17 7 14 15 12 7 9 7 8 9 7 4
60 53 53 45 39 33 26 20 21 18 17 12 4 5 7 7 6 8 6 7 13 7 10 10 7 10 10 4 8 6 7 8 12 13 6 8 8 6 7 10 7 4 3 9 5 8 8
56 56 54 49 44 39 32 24 21 17 14 7 4 8 12 12 19 8 11 5 7 12 7 15 7 6 4 12 12 2 4 4 2 12 8 9 2 5 6 9 8 1 4 1 5 5 8
49 49 52 54 51 46 39 32 26 20 13 4 4 5 8 10 11 4 3 10 12 22 15 25 7 8 7 8 5 3 4 7 5 10 5 7 9 6 5 2 7 6 6 6 6 6 5
49 48 46 48 51 50 39 35 30 22 16 14 8 6 4 7 2 2 7 13 19 17 10 11 10 8 5 2 8 7 15 13 16 12 8 9 7 5 5 6 4 12 6 12 16 5 6
42 46 47 45 44 44 43 39 39 28 20 16 14 6 3 5 5 10 20 10 25 32 10 9 19 12 1 6 10 11 11 10 8 15 11 6 10 6 8 7 7 10 10 10 9 1 3
40 39 42 47 45 43 48 44 41 35 27 20 14 15 8 2 7 12 9 12 6 10 17 13 17 19 5 8 8 6 6 8 6 5 10 12 13 9 6 8 14 13 6 5 17 3 8
40 39 40 42 46 45 45 48 47 42 34 26 19 18 14 8 10 10 8 6 12 9 5 11 27 14 13 6 6 5 5 4 4 7 2 6 6 9 6 7 12 13 13 4 9 13 30
40 41 39 37 41 44 43 43 46 46 40 30 23 22 25 9 27 23 22 18 14 9 4 21 9 10 9 8 6 5 4 4 1 3 6 10 9 7 6 3 12 8 3 9 9 42 38
41 40 40 37 36 40 41 40 40 37 39 30 28 23 28 29 13 17 24 28 28 17 16 12 3 4 5 7 1 5 4 4 3 5 8 0 10 6 11 9 8 7 1 5 18 25 15
Wind_Direction_850mb
323 318 322 322 322 332 333 321 331 335 337 335 333 333 330 331 331 337 334 330 330 328 327 330 329 331 336 303 318 352 332 215 177 169 162 47 11 27 359 304 302 180 270 202 259 294 136
326 321 322 324 326 327 331 324 327 333 336 334 331 332 330 328 330 332 329 327 328 327 324 328 326 330 297 297 25 1 301 209 174 160 140 12 358 326 270 258 236 296 287 287 188 302 348
323 324 322 323 324 325 325 329 327 333 335 331 330 329 330 326 327 327 326 323 325 323 319 322 319 315 251 276 11 356 276 156 148 151 334 359 356 345 310 311 312 324 10 340 352 359 38
325 323 321 321 321 324 323 328 327 332 334 332 331 328 329 327 324 323 324 320 320 314 309 310 306 296 236 220 223 38 138 137 140 168 348 358 345 314 263 310 351 38 49 34 297 32 6
321 319 318 319 320 323 322 328 328 329 332 331 329 327 328 327 323 320 326 317 315 307 308 306 293 295 251 256 202 159 174 151 323 311 303 310 315 301 332 69 9 15 141 281 322 21 138
314 313 313 316 316 317 320 326 327 326 330 330 328 324 329 328 325 319 330 318 331 301 314 324 272 297 218 297 234 218 194 233 291 326 304 293 59 51 32 73 199 178 27 296 249 356 83
306 310 315 316 315 315 320 322 324 324 328 329 326 325 328 329 325 321 342 341 354 350 309 272 275 267 287 327 239 214 218 243 259 272 49 358 41 244 231 206 92 175 167 217 267 146 91
306 307 308 309 313 316 319 322 323 323 329 328 324 326 325 330 324 319 329 16 29 326 297 290 272 262 267 276 305 225 206 200 178 205 36 10 245 238 232 184 153 261 356 137 25 60 87
298 302 304 306 310 314 318 321 326 324 328 326 324 325 325 334 323 315 320 12 342 342 283 292 245 243 246 236 226 226 203 196 120 36 211 193 252 60 203 45 232 303 174 192 160 80 82
289 293 299 304 308 312 318 322 323 324 327 327 325 326 327 335 320 330 357 334 339 330 47 274 222 228 197 207 229 222 204 171 185 215 212 226 277 263 40 241 168 93 201 129 131 106 200
282 285 290 297 303 309 314 318 321 323 326 325 324 324 321 324 314 320 313 330 8 91 349 194 189 175 173 172 164 190 197 196 195 230 72 262 303 13 197 214 161 196 164 115 135 128 100
277 281 283 291 300 306 311 315 319 322 323 321 320 321 315 313 309 317 324 332 7 44 258 316 157 169 126 199 218 88 162 199 232 219 219 246 264 238 225 88 115 92 77 45 63 90 30
271 278 282 285 293 303 309 316 320 323 323 319 316 316 310 299 294 303 321 348 39 175 320 310 206 151 157 167 235 153 154 161 191 112 358 324 268 254 181 99 34 72 53 5 10 14 215
268 269 276 282 288 297 306 313 319 322 325 319 316 315 306 289 288 265 294 53 203 269 285 336 302 120 176 162 231 209 148 198 231 105 102 205 344 260 175 157 159 56 140 145 190 185 267
269 265 268 273 281 289 297 304 311 318 325 321 320 317 314 302 250 213 169 116 224 220 343 324 325 109 226 219 182 151 204 215 193 167 171 174 288 338 177 133 118 194 62 178 102 23 65
261 265 266 273 275 285 291 296 303 310 321 324 326 324 334 317 184 176 98 221 249 283 339 337 3 130 185 218 162 163 185 212 204 189 156 214 101 25 338 55 36 112 152 60 18 134 211
255 259 262 272 274 280 289 294 300 304 314 322 329 326 323 157 149 169 161 231 281 305 354 352 322 298 226 193 191 199 208 269 189 181 161 157 107 286 47 47 208 13 43 52 110 112 151
249 254 261 263 269 277 285 293 300 306 312 322 326 338 100 160 67 50 164 196 281 315 318 265 238 219 249 245 228 232 206 262 41 147 166 192 141 149 125 308 218 127 88 109 111 229 89
247 251 253 255 264 272 277 294 295 309 316 329 322 282 252 219 201 241 287 273 274 272 245 269 271 241 292 291 8 235 162 116 43 163 159 178 16 69 15 358 5 82 37 96 99 88 196
240 248 250 250 252 265 273 285 288 303 310 328 316 341 327 32 312 359 8 300 283 306 263 234 243 239 303 34 357 311 1 15 51 68 85 102 103 153 188 192 149 114 109 98 107 101 191
242 239 241 246 247 251 265 270 277 287 302 324 308 287 343 319 336 335 286 308 299 267 243 292 297 217 159 79 343 38 357 4 46 27 57 91 109 111 74 78 93 155 108 133 145 179 149
241 244 239 241 245 242 251 257 264 269 288 302 308 346 335 299 300 342 359 340 318 336 232 288 233 346 191 149 179 141 324 15 279 19 58 2 92 103 64 46 86 215 283 358 141 129 245
239 240 239 240 241 240 242 244 248 260 258 217 221 303 300 308 334 58 6 302 315 325 273 241 293 108 91 170 192 32 40 343 266 127 96 64 121 92 182 69 115 333 207 125 94 51 249
236 236 237 237 236 236 231 231 239 244 233 227 238 331 321 274 329 6 314 313 302 302 260 321 105 124 181 184 93 54 62 54 76 44 117 111 86 77 148 45 166 239 289 127 119 49 40
237 233 232 232 231 227 225 222 229 235 230 230 240 226 277 277 299 333 324 322 324 347 360 345 24 23 85 64 64 39 352 17 352 40 25 71 118 96 144 188 287 307 160 169 188 135 301
235 236 228 228 229 225 223 220 220 225 232 228 233 221 210 267 231 321 311 343 331 331 341 358 9 359 360 69 70 109 187 215 279 323 49 59 63 120 122 168 213 236 251 72 109 274 212
239 234 230 225 226 225 224 224 224 226 229 229 228 224 201 230 266 12 32 329 351 343 269 319 333 349 13 61 81 131 221 211 222 189 243 25 24 163 136 215 287 252 222 157 126 238 173
233 235 234 222 222 225 222 221 221 220 220 224 227 228 211 244 264 265 280 308 338 9 46 322 357 353 27 68 114 194 149 254 17 212 192 175 157 203 106 148 269 350 83 164 204 153 167
230 228 229 223 220 222 219 214 208 206 206 218 228 229 224 240 266 288 263 248 263 288 292 322 318 293 358 85 64 117 93 46 91 258 344 45 187 198 165 219 284 308 3 59 150 153 166